Weather in Belyaevka

Russia / Orenburg Oblast     51°23′49″N   56°24′28″E
В апреле 2022 года жителям России запретили посещать сайт meteo.paraplan.net по решению Генеральной прокуратуры. Аудитория сайта уменьшилась в 10 раз. Владельцы сайта не видят смысла в поддержке погодного сервера в таких условиях. Сайт будет закрыт в октябре.
temp.,
°C
wind,
m/s
gust,
m/s
humid.,
%
clouds,
%
prec.,
mm/h
press.,
hPa
HPBL,
m
25 september, sun
sun2523:00+20nw2249100 0.0 101028
02:00+18nw2254100 0.0 100930
05:00+19nnw1151100 0.2 100916
08:00+19ne4856100 0.1 1004205
11:00+27sse81223100 0.1 10001725
14:00+14w81282100 1.1 1005624
17:00+14w6973100 1.3 1007955
20:00+12wsw510725 0.1 1009495
26 september, mon
mon2623:00+11wsw5107718 0.6 1009562
02:00+10wsw5108030 0.1 1010447
05:00+9wsw4109080 0.3 1011534
08:00+9wsw6108110 0.3 1011584
11:00+12wsw796069 0.4 10121308
14:00+12wsw7961100 0.3 10131307
17:00+11w796990 0.9 10141141
20:00+10w4975100 0.1 10151162
27 september, tue
tue2723:00+10sw377735 0.4 1014495
02:00+9w598285 0.3 1015687
05:00+7wsw379370 0.4 1016224
08:00+8w4983100 0.1 1016441
11:00+11w576267 0.2 10171145
14:00+12nw565599 0.2 10171292
17:00+12wnw565466 0.5 10171298
20:00+10nw35705 0.2 1019137
28 september, wed
wed2823:00+8wnw22775 0.2 101912
02:00+7nne1177100 0.0 102010
05:00+7s1177100 0.0 102010
08:00+7se1175100 0.0 102010
11:00+11sse2258100 0.0 1020478
14:00+11s126086 0.0 1020425
17:00+12se1155100 0.0 1019377
20:00+10ene4665100 0.0 1020204
29 september, thu
thu2923:00+10e5973100 0.0 1020372
02:00+8e71085100 1.6 1021367
05:00+7e61086100 2.4 1021405
08:00+7e61187100 1.6 1021454
11:00+6e91485100 4.1 1021464
14:00+5ese91488100 3.2 1022458
17:00+4e91587100 5.6 1021445
20:00+3e101689100 3.6 1023487